OBJECT C, 68141

Orbit data source: Space-Track

You're viewing an Uncataloged Satellite

Recently launched and/or uncataloged satellites may have evolving metadata. Metadata may include but not limited to: Owner, Maufacturer, Bus, Motor, and Mission.

OBJECT C, 68141 is a satellite owned by CASC (CN) in LEO that was launched on Thu, 12 Mar 2026 UTC launched from the Xichang Space Center, China (XSC). Unknown objects in Earth's orbit typically refer to objects detected orbiting the Earth but have not yet been identified or cataloged. These objects could be anything from previously untracked satellites, spent rocket stages, debris from satellite collisions, or even natural meteoroids temporarily captured by Earth's gravity.

Loading next visibility...
Identifier
68141, 2026-048C
Orbit
LEO
Country
Flag of CNCN / PRC
Related business
Manufacturer
BWYIC
Mission
Spacecraft
Bus & Motor
CZ-2 STAGE 2, Unknown motor
Mass
4,006 kg wet, 4,006 kg dry
Launch date (UTC)
2026-03-12 (3 days ago)
Launch vehicle
Unknown
Launch site
Xichang Space Center, China (XSC)
Object type
Unknown
Shape & HBR
Unknown
Radar Cross Section
RCS unknown

Expand to show TLE details & history
Last TLE update: 5 hours ago

TLE from 5 hours ago
0 OBJECT C
1 68141U 26048C   26073.58983022  .00002113  00000-0  18950-3 0  9998
2 68141  35.1291 114.8293 0015522   6.4281 353.6624 14.95517011   235
Epoch: 2026-03-14T14:09Z
TLE epoch observation values (Epoch: 2026-03-14T14:09:21.331Z)
Latitude
-0.00002°
Longitude
90.28156°
Altitude
568.969 km
Speed
7.585 km/s
True Right ascension
07h 39m 19s
True Declination
0° 00' 00"
Sunlit
Object was in full shadow at epoch
Visualization orbit readout
Latitude
Unknown
Longitude
Unknown
Altitude
Unknown
Speed
Unknown
Apparent Right ascension
Unknown
Apparent Declination
Unknown
Sunlit
N/A
Visualization observer readout
Local Sidereal Time
00:00:23
Azimuth
Unknown
Elevation
Unknown
Doppler factor
Unknown
Orbital elements
Apogee altitude
594.766 km
Perigee altitude
573.153 km
Semi-major axis
6,962.096 km
Eccentricity
0.00155
Inclination
35.1291°
RAAN
114.8293°
Arg. of periapsis
6.4281°
True anomaly
353.64273°
Mean anomaly
353.6624°
Eccentric anomaly
353.65257°
Mean motion
3.73623 °/min
Orbital period
96.35 mins
BSTAR
0.0001895
Loading maneuver chart data...
Computing Atmospheric mass density...
Loading historical data...
Loading historical data...
Loading historical data...
Loading historical data...
Loading historical data...
Loading historical data...
Loading historical data...
Other satellites on launch #48 in the year 2026 (2026-03-12 UTC)

Documentation

Showing up to 5 results
|